Regional Weather Roundup
Issued by NWS

Home | Current Version | Previous Version | Graphics & Text | Print | Product List | Glossary Off
Versions: 1 2 3 4 5 6 7 8 9 10 11 12 13 14 15 16 17 18 19 20 21 22 23 24 25 26 27 28 29 30 31 32 33 34 35 36 37 38 39 40 41 42 43 44 45 46 47 48

000
ASUS43 KMPX 042110
RWRMN
WEATHER ROUNDUP FOR MINNESOTA
NATIONAL WEATHER SERVICE TWIN CITIES/CHANHASSEN MN
400 PM CDT FRI SEP 04 2015


NOTE: "FAIR" INDICATES FEW OR NO CLOUDS BELOW 12,000 FEET WITH NO
SIGNIFICANT WEATHER AND/OR OBSTRUCTIONS TO VISIBILITY. N/A MEANS
CURRENT SKY AND/OR WEATHER CONDITIONS ARE NOT AVAILABLE.

MNZ060>063-068>070-042200-
   Twin Cities Metro

CITY           SKY/WX    TMP DP  RH WIND       PRES   REMARKS
TWIN CITIES    FAIR      89  72  56 SE18G24   29.89F HX  96
ST PAUL        FAIR      87  74  64 SE17      29.90S HX  95
CRYSTAL        FAIR      90  72  55 SE14      29.88S HX  97
BLAINE         MOSUNNY   90  73  58 SE15      29.90S HX  98
LAKEVILLE      FAIR      88  72  58 SE9G17    29.90F HX  94
EDEN PRAIRIE   FAIR      90  74  59 SE14      29.88S HX  99
SOUTH ST PAUL  FAIR      88  71  58 SE10G18   29.90S HX  94
LAKE ELMO      FAIR      86  73  66 SE14G20   29.92F HX  93
$$
MNZ001>005-007-008-013>017-022>024-027-028-042200-
   Northwest Minnesota

CITY           SKY/WX    TMP DP  RH WIND       PRES   REMARKS
BEMIDJI        FAIR      81  71  71 SE8       29.87S
HALLOCK        LGT RAIN  68  66  94 NW10G20   29.81R
ROSEAU         FAIR      79  72  78 S8        29.84R
WARROAD        FAIR      81  73  78 S8        29.86R
THIEF RVR FALL PTSUNNY   81  70  69 SW9       29.83R
CROOKSTON      LGT RAIN  77  70  78 SW7       29.82R
FOSSTON        FAIR      81  68  65 S9        29.86R
DETROIT LAKES  FAIR      79  70  73 SW6       29.88R
MOORHEAD       FAIR      77  70  78 S8        29.83R
PARK RAPIDS    FAIR      84  70  62 S14       29.87R
MAHNOMEN       LGT RAIN  77  73  85 SE6       29.87R
$$
MNZ006-009>011-018-025>026-042200-
   North Central Minnesota

CITY           SKY/WX    TMP DP  RH WIND       PRES   REMARKS
BAUDETTE       PTSUNNY   85  70  60 S9G20     29.86R
FLAG ISLAND    CLOUDY    75  70  83 SE8       29.84S
INTL FALLS     FAIR      85  70  60 SE16G22   29.88F
WASKISH        PTSUNNY   82  72  69 SE5       29.87R
BIG FORK       FAIR      86  70  58 S10       29.90R HX  90
LONGVILLE      FAIR      81  70  69 SE10G16   29.88S
GRAND RAPIDS     N/A     82  70  65 SE12G20   29.90S
CRANE LAKE     PTSUNNY   82  64  54 S6G17     29.94S
ORR            FAIR      82  66  57 SE9G17    29.90S
COOK           FAIR      82  68  61 SE13      29.94S
WALKER         FAIR      79  71  75 SE6       29.87S
$$
MNZ012-019>021-037-042200-
   Northeast Minnesota

CITY           SKY/WX    TMP DP  RH WIND       PRES   REMARKS
DULUTH         FAIR      76  65  68 E17       29.96F
ELY            FAIR      81  61  50 SE13G18   29.97S
HIBBING        FAIR      83  69  62 SE15G22   29.93F
EVELETH        FAIR      81  66  61 SE13G21   29.96S
DULUTH HARBOR  FAIR      64  61  88 E13       29.97F
TWO HARBORS    FAIR      79  68  69 NE9       29.96F
SILVER BAY     FAIR      73  63  68 NE9       29.99S
GRAND MARAIS     N/A     64  56  75 E8        30.02F
G MARAIS ARPRT FAIR      73  55  53 SE10      30.08S
$$
MNZ029>031-032-039>041-046>048-054>057-064-042200-
   West Central Minnesota

CITY           SKY/WX    TMP DP  RH WIND       PRES   REMARKS
FERGUS FALLS   FAIR      81  70  69 S10       29.83S
WHEATON        FAIR      82  70  65 SE10      29.83S
MORRIS         FAIR      82  70  65 SE7       29.84F
ALEXANDRIA     FAIR      84  71  65 S10       29.87F
ELBOW LAKE     FAIR      82  72  71 SE10      29.85S HAZE
WADENA         FAIR      84  72  65 S13       29.86S
GLENWOOD       FAIR      86  72  62 S10       29.87S HX  92
APPLETON       LGT RAIN  81  72  74 E8        29.82F
BENSON         LGT RAIN  82  72  69 S3        29.85S
ORTONVILLE     FAIR      81  72  74 SE7       29.83R
MADISON        FAIR      79  73  83 SE5       29.83F
WILLMAR        FAIR      88  72  58 S7G16     29.87R HX  94
$$
MNZ033>034-036-042>043-049>051-058-059-042200-
   Central Minnesota

CITY           SKY/WX    TMP DP  RH WIND       PRES   REMARKS
ST CLOUD       FAIR      88  73  61 SE16G22   29.88S HX  95
SAUK CENTRE    FAIR      87  74  65 SE9G18    29.86S HX  94
PAYNESVILLE    FAIR      87  70  57 E9        29.87S HX  92
AITKIN         FAIR      86  73  66 SE12G17   29.88S HX  93
PINE RIVER     FAIR      82  72  69 SE14G20   29.90F
BRAINERD       FAIR      84  70  62 SE9G22    29.88F
STAPLES        FAIR      84  70  61 SE12      29.86R
LONG PRAIRIE   FAIR      86  72  62 SE9G18    29.86F HX  92
LITTLE FALLS   FAIR      86  70  58 SE16      29.86F HX  90
LITCHFIELD     FAIR      90  73  58 SE10G17   29.86F HX  98
BUFFALO        FAIR      88  72  58 SE10      29.89F HX  95
MAPLE LAKE     FAIR      88  77  69 SE12      29.89F HX 100
$$
MNZ037-044-045-052-053-042200-
   East Central Minnesota

CITY           SKY/WX    TMP DP  RH WIND       PRES   REMARKS
PRINCETON      FAIR      90  73  58 SE12      29.89S HX  98
MORA           FAIR      86  70  58 SE9G17    29.91F HX  90
CAMBRIDGE        N/A     90  72  55 SE10G17   29.88F HX  96
RUSH CITY      FAIR      85  72  63 SE9       29.91S HX  91
MOOSE LAKE     FAIR      84  70  61 SE5       29.90F
HINCKLEY       FAIR      86  72  62 SE10G17   29.91F HX  92
CLOQUET        FAIR      75  63  64 E12       29.95F
MCGREGOR       FAIR      84  70  61 SE14G20   29.90F
$$
MNZ071>073-080-081-089-090-097-098-042200-
   Southwest Minnesota

CITY           SKY/WX    TMP DP  RH WIND       PRES   REMARKS
MONTEVIDEO     FAIR      84  72  65 S9        29.86F
GRANITE FALLS  FAIR      82  71  67 SE7       29.87S
CANBY          LGT RAIN  78  71  80 SE8       29.86R
MARSHALL       FAIR      81  66  61 S14       29.88S
REDWOOD FALLS  FAIR      86  72  62 S12       29.86S HX  92
OLIVIA         FAIR      82  66  57 S9        29.86S
PIPESTONE      FAIR      75  70  83 SE9G16    29.89S
WINDOM         FAIR      82  68  61 S9        29.90S
WORTHINGTON    CLOUDY    75  70  83 CALM      29.93R
JACKSON        FAIR      82  72  69 S9        29.92S
TRACY          FAIR      79  71  76 SW10      29.90R THUNDER
SLAYTON        LGT RAIN  73  70  89 S9        29.92S
$$
MNZ065>067-074>077-082>085-091>093-042200-
   South Central Minnesota

CITY           SKY/WX    TMP DP  RH WIND       PRES   REMARKS
MANKATO        FAIR      88  73  62 S13G18    29.89S HX  96
NEW ULM        FAIR      86  72  62 S9        29.88S HX  92
ST JAMES       FAIR      86  73  66 S9        29.90S HX  93
FAIRMONT       FAIR      84  70  61 S13       29.91R
GLENCOE        FAIR      91  76  61 SE6       29.87F HX 104
FARIBAULT      FAIR      88  73  62 SE12G17   29.92S HX  96
OWATONNA       FAIR      88  72  58 SE14      29.92S HX  94
WASECA         FAIR      84  72  65 S12       29.92F
ALBERT LEA     FAIR      88  72  58 S12G17    29.93S HX  94
$$
MNZ078>079-086>088-094>096-042200-
   Southeast Minnesota

CITY           SKY/WX    TMP DP  RH WIND       PRES   REMARKS
ROCHESTER      FAIR      86  72  62 SE15G21   29.96F HX  92
RED WING       FAIR      88  72  58 SE13      29.90F HX  94
STANTON        FAIR      89  72  55 S9        29.90S HX  96
DODGE CENTER   FAIR      84  72  65 S10G16    29.94F
WINONA         FAIR      90  73  58 E9        29.95F HX  98
AUSTIN         FAIR      88  73  62 S9        29.94S HX  96
PRESTON        FAIR      86  70  58 SE9       29.97F HX  91
$$
ABBREVIATIONS USED IN REMARKS
   TC - TEMPERATURES IN CELSIUS
  WCI - WIND CHILL INDEX
   HX - HEAT INDEX
  VSB - VISIBILITY
$$


USA.gov is the U.S. government's official web portal to all federal, state and local government web resources and services.